Tracking 19795 objects as of 17-Jul-2019
HD Live streaming from Space Station
objects crossing your sky now

FENGYUN 1C DEB

Track FENGYUN 1C DEB now!
10-day predictions


NORAD ID: 33730
Int'l Code: 1999-025DHT
Perigee: 732.3 km
Apogee: 825.0 km
Inclination: 99.1 °
Period: 100.3 minutes
Semi major axis: 7149 km
RCS: 0.0099 m2 (small)
Launch date: May 10, 1999
Source: People's Republic of China (PRC)
Launch site: Taiyaun Space Center, China (TSC)

Note: This is SATELLITE DEBRIS
aabbcc
Your satellite tracking list
Your tracking list is empty




NASA's NSSDC Master Catalog

Two Line Element Set (TLE):
1 33730U 99025DHT 19198.45260964  .00000438  00000-0  16316-3 0  9990
2 33730  99.0554  77.1460 0064826 103.3729 257.4693 14.36058357620866
Source of the keplerian elements: AFSPC